Clemson, SC

1:32 PM EST on February 12, 2016 (GMT -0500)
Oconee County Regional

Weather History for KCEU - August, 2013

Change the Weather History Date:

Monday, August 5, 2013

  Actual Average Record
Temperature  
Mean Temperature 80 °F -  
Max Temperature 88 °F 89 °F 100 °F (1954)
Min Temperature 73 °F 66 °F 56 °F (1985)
Cooling Degree Days 14    
Growing Degree Days 30 (Base 50)    
Moisture  
Dew Point 67 °F    
Average Humidity 66    
Maximum Humidity 82    
Minimum Humidity 55    
Precipitation  
Precipitation 0.00 in - - ()
Sea Level Pressure  
Sea Level Pressure 30.03 in    
Wind  
Wind Speed 3 mph (ENE)    
Max Wind Speed 7 mph    
Max Gust Speed -    
Visibility 10 miles    
Events      
Averages and records for this station are not official NWS values.
T = Trace of Precipitation, MM = Missing Value Source: NWS Daily Summary

Daily Weather History Graph

Daily Weather History Graph

Search for Another Location

Airport or City:

Trip Planner

Search our weather history database for the weather conditions in past years. The results will help you decide how hot, cold, wet, or windy it might be!

Date:

Astronomy

Aug. 05, 2013 Rise Set
Actual Time 6:44 AM EDT 8:29 PM EDT
Civil Twilight 6:17 AM EDT 8:57 PM EDT
Nautical Twilight 5:44 AM EDT 9:29 PM EDT
Astronomical Twilight 5:09 AM EDT 10:04 PM EDT
Moon 5:38 AM EDT (8/5) 7:31 PM EDT (8/5)
Length of Visible Light 14h 39m
Length of Day
13h 44m
Waning Crescent, 1% of the Moon is Illuminated
Aug 5
Waning Crescent
Aug 6
New
Aug 14
First Quarter
Aug 20
Full
Aug 28
Last Quarter

Hourly Weather History & Observations

Time (EDT) Temp. Heat Index Dew Point Humidity Pressure Visibility Wind Dir Wind Speed Gust Speed Precip Events Conditions
12:54 AM 75.9 °F - 63.0 °F 64% 30.04 in 10.0 mi NE 4.6 mph - N/A   Partly Cloudy
1:54 AM 75.0 °F - 64.0 °F 69% 30.02 in 10.0 mi North 4.6 mph - N/A   Mostly Cloudy
2:54 AM 73.9 °F - 62.1 °F 66% 30.02 in 10.0 mi North 4.6 mph - N/A   Mostly Cloudy
3:54 AM 73.9 °F - 63.0 °F 68% 30.01 in 10.0 mi Calm Calm - N/A   Mostly Cloudy
4:54 AM 73.0 °F - 64.0 °F 73% 30.01 in 10.0 mi Calm Calm - N/A   Overcast
5:54 AM 73.0 °F - 63.0 °F 71% 30.02 in 10.0 mi North 4.6 mph - N/A   Mostly Cloudy
6:54 AM 73.0 °F - 63.0 °F 71% 30.03 in 10.0 mi NNE 3.5 mph - N/A   Scattered Clouds
7:54 AM 73.9 °F - 64.0 °F 71% 30.05 in 10.0 mi NE 4.6 mph - N/A   Overcast
8:54 AM 75.9 °F - 63.0 °F 64% 30.07 in 10.0 mi NE 5.8 mph - N/A   Overcast
9:54 AM 78.1 °F - 64.0 °F 62% 30.06 in 10.0 mi NE 6.9 mph - N/A   Mostly Cloudy
10:29 AM 78.8 °F - 64.4 °F 61% 30.10 in 10.0 mi NNE 5.8 mph - N/A   Overcast
10:54 AM 79.0 °F - 64.9 °F 62% 30.07 in 10.0 mi ENE 5.8 mph - N/A   Mostly Cloudy
11:54 AM 79.0 °F - 66.9 °F 66% 30.07 in 10.0 mi East 3.5 mph - N/A   Overcast
12:02 PM 78.8 °F - 66.2 °F 65% 30.10 in 10.0 mi SE 4.6 mph - N/A   Overcast
12:14 PM 78.8 °F - 66.2 °F 65% 30.10 in 10.0 mi East 3.5 mph - N/A   Overcast
12:26 PM 80.6 °F 82.7 °F 66.2 °F 61% 30.09 in 10.0 mi ENE 3.5 mph - N/A   Mostly Cloudy
12:37 PM 80.6 °F 82.7 °F 66.2 °F 61% 30.09 in 10.0 mi East 4.6 mph - N/A   Overcast
12:54 PM 81.0 °F 83.8 °F 68.0 °F 65% 30.06 in 10.0 mi Calm Calm - N/A   Overcast
1:54 PM 84.0 °F 87.0 °F 68.0 °F 58% 30.03 in 10.0 mi Calm Calm - N/A   Scattered Clouds
2:54 PM 86.0 °F 90.1 °F 69.1 °F 57% 30.01 in 10.0 mi Calm Calm - N/A   Scattered Clouds
3:54 PM 86.0 °F 89.4 °F 68.0 °F 55% 30.00 in 10.0 mi Variable 3.5 mph - N/A   Partly Cloudy
4:54 PM 86.0 °F 90.7 °F 70.0 °F 59% 29.98 in 10.0 mi South 3.5 mph - N/A   Clear
5:54 PM 84.9 °F 88.8 °F 69.1 °F 59% 29.98 in 10.0 mi Calm Calm - N/A   Partly Cloudy
6:54 PM 82.9 °F 87.5 °F 71.1 °F 67% 29.98 in 10.0 mi Calm Calm - N/A   Clear
7:54 PM 82.0 °F 86.3 °F 71.1 °F 69% 29.98 in 10.0 mi Calm Calm - N/A   Clear
8:54 PM 80.1 °F 83.6 °F 71.1 °F 74% 29.99 in 10.0 mi Calm Calm - N/A   Mostly Cloudy
9:54 PM 80.1 °F 83.6 °F 71.1 °F 74% 29.99 in 10.0 mi SSE 3.5 mph - N/A   Scattered Clouds
10:54 PM 77.0 °F - 71.1 °F 82% 30.00 in 10.0 mi Calm Calm - N/A   Clear
11:54 PM 78.1 °F - 70.0 °F 76% 30.00 in 10.0 mi Variable 3.5 mph - N/A   Clear